星链-2633 (STARLINK-2633 )

导读

STARLINK-2633是美国太空探索技术公司Starlink星座的成员,于2021年5月9日发射升空,属于第二代星链卫星,主要为全球提供低延迟、高速率的卫星互联网服务。该卫星运行在近地轨道,依托星链组网,可覆盖偏远地区,也支持包括民用通信、特殊场景联网等多元服务。

Basic Information
目录编号:
48435
目录名称:
STARLINK-2633
国际标识:
2021-040H
轨道中心:
EARTH
卫星名称:
星链-2633
卫星全名:
星链-2633 (STARLINK-2633 )
卫星状态:
在轨 (已飞行1944 天)
发射日期:
2021-05-09 UTC
国别 :
美国 (US)
星等 :
--
Orbit Information
数据来源 国际轨道数据
星历时间: 2026-09-04T03:08:38+0800
7小时前
查看轨道信息
半长轴: 6848.842km
偏心率: 0.0001284
轨道倾角: 53.159°
近地点辐角 70.839°
升交点赤经 56.414°
平近点角 289.275°
近地点: 469.825km
远地点: 471.585km
周期: 94.012分钟
每日圈数: 15.31712
Detailed Information
固有亮度:
5
最大亮度:
2.5
卫星平台:
Starlink V1.0
覆盖范围:
全球
运营商:
太空探索技术公司
运营商所在国:
美国
制造商(研发单位):
太空探索技术公司
制造商所在国:
美国
使用方式:
暂无
Satellite Introduction
星链(Starlink)计划是由太空探索技术公司(SpaceX)提出的一个巨型低轨卫星互联网星座项目,计划在2019年至2024年间在太空搭建由约1.2万颗卫星组成的“星链”网络,其中1584颗将部署在地球上空550千米处的近地轨道,并从2020年开始工作。该卫星仍在工作。
2D Orbit Map
3D Orbit Map
Orbit Altitude Analysis Chart
Orbit Inclination Analysis Chart
Orbit Comprehensive Analysis Chart
View Comprehensive Chart
Conjunction Data List
Event ID Objects TCA Miss Dist (km) Collision Risk Probability Collision Risk Index (CRI) Action
CDM_260905-094704-843506-419421
2026-09-05T
09:47:44+0000
0.051 km
近距离
1.376315E-3 极高风险 0.98
CDM_260905-011004-843506-419422
2026-09-05T
01:10:59+0000
1.065 km
极远距离
1.333755E-5 中风险 0.58
CDM_260827-193404-843506-955222
2026-08-27T
19:34:14+0000
2.659 km
极远距离
1.579544E-6 低风险 0.39
CDM_260829-192704-843506-765923
2026-08-29T
19:27:36+0000
2.996 km
极远距离
1.334325E-6 低风险 0.38
CDM_260904-233704-843506-419422
2026-09-04T
23:37:01+0000
2.598 km
极远距离
1.094842E-6 低风险 0.36